951027 410  1.2-  1.1-    030824 461  0.0   0.0     041105 I77  1.3+  0.0   

951027 410  0.3-  0.5-    030824 461  1.1-  0.0     041105 I77  0.5+  1.1+  

951031 108 (4.9+  0.0 )   030824 461  0.9-  1.4+    041105 I77  1.1-  1.7-  

951031 108  0.4-  0.7+    030826 204  1.2-  0.9+    041106 D70  0.3-  0.2+  

951031 108  0.6+  1.5+    030827 204  0.5-  1.2+    041106 D70  1.8+  1.1+  

951116 360  0.7+  0.5-    030831 291  0.1+  0.2+    041109 I77  0.2-  0.2+  

951116 360  0.5+  0.4-    030831 291  0.1+  0.4+    041109 I77 (2.2+  0.8+) 

951117 691  0.4+  0.1-    030831 291  0.1-  0.1-    041109 I77  0.4+  0.0   

951117 691  0.1+  0.0     031120 691  0.5+  0.4+    041109 I77  1.1+  0.6-  

951117 691  0.6+  0.3-    031120 691  0.2+  0.5+    041109 D83  0.2+  0.3-  

951118 801  0.8+  0.1-    031120 691  0.4+  0.3+    041109 D83  0.5+  0.3-  

951118 801  1.6+  0.2-    2004/                     041109 D83  0.4+  0.1-  

951121 360  0.5+  0.1-    040616 703  1.5-  1.3+    041109 D83  0.2+  0.2+  

951121 360  0.3+  0.0     040616 703 (2.5-  0.7-)   041109 352  0.8+  0.3+  

951121 118  0.4+  0.4-    040616 703  1.2-  0.2-    041110 I77  1.3+  0.0   

951121 118  0.4+  0.2-    040616 703  0.3+  0.5+    041110 I77  0.8+  0.1+  

951123 801  0.4+  0.2-    040623 I05  0.3-  0.4+    041110 691  0.3+  0.3+  

951123 801  0.5+  0.4-    040623 I05  0.2-  0.3-    041110 691  0.5+  0.1+  

951124 897  0.5+  0.1-    040623 I05  0.3-  0.8-    041110 691  0.3+  0.2+  

951124 897  0.7+  0.7-    040813 130  0.1+  0.7-    041111 619 (2.9+  1.0+) 

951125 410  0.9+  0.7+    040814 130  0.2+  0.7-    041111 619 (2.0+  0.3-) 

951125 410  1.3+  0.1+    040816 213  0.0   0.1+    041111 619  0.7+  0.1+  

951125 410  0.1-  0.4+    040816 213  0.3+  0.5-    041116 349  0.7+  0.1-  

951210 360  0.6+  0.3+    040817 J76  0.5-  0.8-    041116 349  0.6+  0.1+  

951210 360  0.5+  0.4+    040817 J76  0.8-  0.3-    041116 349  0.4+  0.3+  

951222 410  0.8+  0.9-    040820 A32  0.8-  0.2+    041117 J97  1.4+  1.3+  

951222 410  1.0+  0.4+    040908 360  0.1+  0.3+    041117 J97  0.8+  0.7+  

951222 410  1.2+  0.2+    040908 360  0.1-  0.2+    041117 J97  0.1-  0.3+  

951222 801  0.9+  0.1-    040909 046  0.4-  0.3-    041126 213  0.3+  0.9+  

951222 801  1.4+  0.5+    040909 046  1.0-  0.3-    041126 213  0.8+  1.0+  

1996/                     040909 046  0.9-  0.2+    041126 213  0.7+  1.1+  

960112 360  0.9+  0.4-    040909 046  1.0-  0.3+    041128 900  1.4-  1.3+  

960112 360  0.9+  0.3-    040909 046  1.1-  0.1-    041128 900 (0.0   2.7+) 

960114 046 (2.2+  0.8-)   040909 046  0.4-  0.7-    041202 360  1.0+  0.6+  

960114 046  0.9+  0.3-    040909 046  1.0-  0.1+    041202 360  1.1+  0.5+  

960114 046  0.9+  0.3-    040909 046  1.0-  0.5-                            

960120 691  0.4+  0.1-    040909 046  0.7-  0.1+                            

NAKANO

         **** Don't distribute anyone except personal use only ****

                (C) Copyright 2004 OAA/ComputingSection

write mail from CFAD0::NAKANO on 2004-12-09 01:41:38(JST).

 

 119P/Parker-Hartley 

Epoch 2005 May 30.0 TT = JDT 2453520.5  

T 2005 May 24.32169 TT                                  Nakano

q   3.0444935            (2000.0)            P               Q

n   0.11082971     Peri.  181.41015     +0.41472180     -0.90630598

a   4.2923842      Node   244.09376     +0.83574383     +0.41473153

e   0.2907220      Incl.    5.18781     +0.35991398     +0.08128479

P   8.89

From 225 observations 1986-1998, mean residual 0".71.

NAKANO

         **** Don't distribute anyone except personal use only ****

                (C) Copyright 2002 OAA/ComputingSection

write mail from CFAD0::NAKANO on 2002-05-10 00:07:37(JST).







 119P/Parker-Hartley 

Epoch 2005 May 30.0 TT = JDT 2453520.5  

T 2005 May 24.32169 TT                                  Nakano

q   3.0444935            (2000.0)            P               Q

n   0.11082971     Peri.  181.41015     +0.41472180     -0.90630598

a   4.2923842      Node   244.09376     +0.83574383     +0.41473153

e   0.2907220      Incl.    5.18781     +0.35991398     +0.08128479

P   8.89

From 225 observations 1986-1998, mean residual 0".71.



NAKANO

         **** Don't distribute anyone except personal use only ****

                (C) Copyright 2001 OAA/ComputingSection

write mail from CFAD0::NAKANO on 2001-12-24 03:27:27(JST).

 



–ß‚è‚Ü‚·B